Flag for Germany Weather past 2 weeks in Karlsruhe, Baden-Württemberg, Germany

Now
41 °F

Passing clouds.


Feels Like: 36 °F
Forecast: 34 / 43 °F
Wind: 7 mph from Southwest

Location: Karlsruhe - Baden Wurttemberg

Current Time: Mar 4, 2015 at 6:13:19 AM

Latest Report: Mar 4, 2015 at 5:20 AM


Visibility: N/A

Pressure: 30.27 "Hg

Humidity: 70%

Dew point: 32 °F

Location of KarlsruheLocation

Historic Weather in Karlsruhe — Graph

°F

Karlsruhe temperature yesterday

Maximum temperature yesterday: 54 °F (at 2:50 PM)
Minimum temperature yesterday: 36 °F (at 12:20 AM)
Average temperature yesterday: 45 °F

Past Weeks' High & Low Weather Summary

 TemperatureHumidityPressure
High57 °F (Feb 20, 1:50 PM)100% (Feb 19, 5:20 AM)30.72 "Hg (Feb 19, 5:20 AM)
Low23 °F (Feb 20, 5:20 AM)31% (Feb 20, 3:50 PM)29.50 "Hg (Feb 21, 6:20 AM)
Average40 °F75%30.03 "Hg
* Reported Feb 17 5:20 AM — Mar 4 5:20 AM, Karlsruhe, Weather by CustomWeather, © 2015

Note: Actual official high and low records may vary slightly from our data, if they occured in-between our weather recording intervals... More about our weather records

Advertising

Karlsruhe weather history for previous 24 hours

 ConditionsComfort  
Time TempWeatherWind HumidityBarometerVisibility
5:20 AM
Wed, Mar 4
41 °FPassing clouds.7 mph70%30.27 "HgN/A
11:50 PM
Tue, Mar 3
41 °FSprinkles. Passing clouds.7 mph81%30.18 "HgN/A
11:20 PM43 °FSprinkles. Partly cloudy.13 mph76%30.18 "HgN/A
10:52 PM46 °FSprinkles. Passing clouds.12 mph66%30.15 "HgN/A
10:20 PM48 °FLight rain. Passing clouds.13 mph54%30.12 "HgN/A
9:50 PM48 °FLight rain. Passing clouds.13 mph54%30.12 "HgN/A
9:20 PM48 °FPassing clouds.13 mph50%30.12 "HgN/A
8:50 PM48 °FPassing clouds.13 mph50%30.12 "HgN/A
8:20 PM48 °FClear.13 mph50%30.12 "Hg10 mi
7:50 PM48 °FClear.13 mph50%30.12 "Hg10 mi
7:20 PM48 °FClear.9 mph50%30.12 "Hg10 mi
6:50 PM48 °FClear.10 mph50%30.09 "Hg10 mi
6:20 PM50 °FClear.12 mph43%30.09 "Hg10 mi
5:50 PM50 °FPassing clouds.9 mph43%30.09 "HgN/A
5:20 PM52 °FPartly sunny.8 mph41%30.09 "HgN/A
4:50 PM52 °FBroken clouds.12 mph41%30.09 "HgN/A
4:20 PM52 °FSunny.13 mph41%30.09 "Hg10 mi
3:50 PM52 °FSunny.20 mph44%30.12 "Hg10 mi
3:20 PM54 °FPassing clouds.16 mph38%30.12 "HgN/A
2:50 PM54 °FSunny.18 mph41%30.12 "Hg10 mi
2:20 PM52 °FPassing clouds.17 mph41%30.12 "HgN/A
1:50 PM52 °FSunny.18 mph41%30.15 "Hg10 mi
1:20 PM52 °FSunny.16 mph41%30.15 "Hg10 mi
12:50 PM50 °FSunny.16 mph40%30.15 "Hg10 mi
12:20 PM50 °FPassing clouds.18 mph43%30.18 "HgN/A
11:50 AM48 °FSunny.15 mph43%30.18 "Hg10 mi
11:20 AM46 °FSunny.16 mph50%30.21 "Hg10 mi
10:50 AM46 °FSunny.15 mph53%30.21 "Hg10 mi
10:20 AM45 °FSunny.15 mph57%30.21 "Hg10 mi
9:50 AM43 °FSunny.15 mph61%30.24 "Hg10 mi
9:20 AM41 °FSunny.12 mph66%30.24 "Hg10 mi
8:50 AM39 °FSunny.12 mph70%30.21 "Hg10 mi
8:20 AM37 °FSunny.9 mph70%30.21 "Hg10 mi
7:50 AM36 °FSunny.9 mph75%30.21 "Hg10 mi
7:20 AM36 °FSunny.10 mph75%30.21 "Hg10 mi
6:50 AM36 °FClear.13 mph75%30.21 "Hg10 mi
6:20 AM36 °FClear.10 mph75%30.21 "Hg10 mi
Weather by CustomWeather, © 2015

See weather overviewHow to use our weather pages